Year,Month,Day,Hour,Minute,Value (Times are PST for temperature in C)
2016,04,25,00,00,5.30
2016,04,25,00,01,5.30
2016,04,25,00,02,5.30
2016,04,25,00,03,5.30
2016,04,25,00,04,5.20
2016,04,25,00,05,5.20
2016,04,25,00,06,5.20
2016,04,25,00,07,5.10
2016,04,25,00,08,5.10
2016,04,25,00,09,5.00
2016,04,25,00,10,5.00
2016,04,25,00,11,5.00
2016,04,25,00,12,4.90
2016,04,25,00,13,4.90
2016,04,25,00,14,4.90
2016,04,25,00,15,4.90
2016,04,25,00,16,4.80
2016,04,25,00,17,4.80
2016,04,25,00,18,4.80
2016,04,25,00,19,4.80
2016,04,25,00,20,4.80
2016,04,25,00,21,4.70
2016,04,25,00,22,4.70
2016,04,25,00,23,4.70
2016,04,25,00,24,4.70
2016,04,25,00,25,4.70
2016,04,25,00,26,4.70
2016,04,25,00,27,4.60
2016,04,25,00,28,4.60
2016,04,25,00,29,4.60
2016,04,25,00,30,4.50
2016,04,25,00,31,4.50
2016,04,25,00,32,4.40
2016,04,25,00,33,4.40
2016,04,25,00,34,4.40
2016,04,25,00,35,4.40
2016,04,25,00,36,4.40
2016,04,25,00,37,4.30
2016,04,25,00,38,4.30
2016,04,25,00,39,4.30
2016,04,25,00,40,4.30
2016,04,25,00,41,4.30
2016,04,25,00,42,4.30
2016,04,25,00,43,4.30
2016,04,25,00,44,4.30
2016,04,25,00,45,4.30
2016,04,25,00,46,4.30
2016,04,25,00,47,4.30
2016,04,25,00,48,4.30
2016,04,25,00,49,4.40
2016,04,25,00,50,4.40
2016,04,25,00,51,4.40
2016,04,25,00,52,4.40
2016,04,25,00,53,4.30
2016,04,25,00,54,4.30
2016,04,25,00,55,4.30
2016,04,25,00,56,4.30
2016,04,25,00,57,4.20
2016,04,25,00,58,4.20
2016,04,25,00,59,4.20
2016,04,25,01,00,4.20
2016,04,25,01,01,4.10
2016,04,25,01,02,4.10
2016,04,25,01,03,4.10
2016,04,25,01,04,4.00
2016,04,25,01,05,4.00
2016,04,25,01,06,4.00
2016,04,25,01,07,4.00
2016,04,25,01,08,4.00
2016,04,25,01,09,4.00
2016,04,25,01,10,4.00
2016,04,25,01,11,3.90
2016,04,25,01,12,3.90
2016,04,25,01,13,3.90
2016,04,25,01,14,3.90
2016,04,25,01,15,3.90
2016,04,25,01,16,3.90
2016,04,25,01,17,3.90
2016,04,25,01,18,3.90
2016,04,25,01,19,3.90
2016,04,25,01,20,3.80
2016,04,25,01,21,3.80
2016,04,25,01,22,3.80
2016,04,25,01,23,3.80
2016,04,25,01,24,3.70
2016,04,25,01,25,3.70
2016,04,25,01,26,3.70
2016,04,25,01,27,3.70
2016,04,25,01,28,3.60
2016,04,25,01,29,3.60
2016,04,25,01,30,3.70
2016,04,25,01,31,3.70
2016,04,25,01,32,3.70
2016,04,25,01,33,3.70
2016,04,25,01,34,3.70
2016,04,25,01,35,3.70
2016,04,25,01,36,3.70
2016,04,25,01,37,3.70
2016,04,25,01,38,3.70
2016,04,25,01,39,3.60
2016,04,25,01,40,3.60
2016,04,25,01,41,3.60
2016,04,25,01,42,3.60
2016,04,25,01,43,3.60
2016,04,25,01,44,3.60
2016,04,25,01,45,3.60
2016,04,25,01,46,3.60
2016,04,25,01,47,3.60
2016,04,25,01,48,3.60
2016,04,25,01,49,3.60
2016,04,25,01,50,3.60
2016,04,25,01,51,3.60
2016,04,25,01,52,3.60
2016,04,25,01,53,3.60
2016,04,25,01,54,3.60
2016,04,25,01,55,3.60
2016,04,25,01,56,3.60
2016,04,25,01,57,3.60
2016,04,25,01,58,3.60
2016,04,25,01,59,3.50
2016,04,25,02,00,3.50
2016,04,25,02,01,3.50
2016,04,25,02,02,3.40
2016,04,25,02,03,3.40
2016,04,25,02,04,3.40
2016,04,25,02,05,3.40
2016,04,25,02,06,3.40
2016,04,25,02,07,3.40
2016,04,25,02,08,3.40
2016,04,25,02,09,3.40
2016,04,25,02,10,3.50
2016,04,25,02,11,3.50
2016,04,25,02,12,3.50
2016,04,25,02,13,3.50
2016,04,25,02,14,3.50
2016,04,25,02,15,3.50
2016,04,25,02,16,3.50
2016,04,25,02,17,3.40
2016,04,25,02,18,3.40
2016,04,25,02,19,3.40
2016,04,25,02,20,3.40
2016,04,25,02,21,3.30
2016,04,25,02,22,3.30
2016,04,25,02,23,3.30
2016,04,25,02,24,3.20
2016,04,25,02,25,3.20
2016,04,25,02,26,3.20
2016,04,25,02,27,3.20
2016,04,25,02,28,3.30
2016,04,25,02,29,3.30
2016,04,25,02,30,3.20
2016,04,25,02,31,3.20
2016,04,25,02,32,3.20
2016,04,25,02,33,3.20
2016,04,25,02,34,3.20
2016,04,25,02,35,3.20
2016,04,25,02,36,3.20
2016,04,25,02,37,3.20
2016,04,25,02,38,3.20
2016,04,25,02,39,3.20
2016,04,25,02,40,3.20
2016,04,25,02,41,3.20
2016,04,25,02,42,3.20
2016,04,25,02,43,3.20
2016,04,25,02,44,3.20
2016,04,25,02,45,3.20
2016,04,25,02,46,3.30
2016,04,25,02,47,3.30
2016,04,25,02,48,3.30
2016,04,25,02,49,3.30
2016,04,25,02,50,3.30
2016,04,25,02,51,3.30
2016,04,25,02,52,3.30
2016,04,25,02,53,3.30
2016,04,25,02,54,3.30
2016,04,25,02,55,3.30
2016,04,25,02,56,3.30
2016,04,25,02,57,3.20
2016,04,25,02,58,3.20
2016,04,25,02,59,3.10
2016,04,25,03,00,3.10
2016,04,25,03,01,3.10
2016,04,25,03,02,3.00
2016,04,25,03,03,3.00
2016,04,25,03,04,2.90
2016,04,25,03,05,2.90
2016,04,25,03,06,2.90
2016,04,25,03,07,2.90
2016,04,25,03,08,3.00
2016,04,25,03,09,3.00
2016,04,25,03,10,3.00
2016,04,25,03,11,3.00
2016,04,25,03,12,3.00
2016,04,25,03,13,3.00
2016,04,25,03,14,3.00
2016,04,25,03,15,3.00
2016,04,25,03,16,2.90
2016,04,25,03,17,2.90
2016,04,25,03,18,2.90
2016,04,25,03,19,2.90
2016,04,25,03,20,2.90
2016,04,25,03,21,2.90
2016,04,25,03,22,2.90
2016,04,25,03,23,2.90
2016,04,25,03,24,2.90
2016,04,25,03,25,2.90
2016,04,25,03,26,2.90
2016,04,25,03,27,2.90
2016,04,25,03,28,2.90
2016,04,25,03,29,3.00
2016,04,25,03,30,3.00
2016,04,25,03,31,3.00
2016,04,25,03,32,3.00
2016,04,25,03,33,3.10
2016,04,25,03,34,3.10
2016,04,25,03,35,3.10
2016,04,25,03,36,3.10
2016,04,25,03,37,3.10
2016,04,25,03,38,3.10
2016,04,25,03,39,3.10
2016,04,25,03,40,3.10
2016,04,25,03,41,3.00
2016,04,25,03,42,3.00
2016,04,25,03,43,3.00
2016,04,25,03,44,3.00
2016,04,25,03,45,3.00
2016,04,25,03,46,3.00
2016,04,25,03,47,3.10
2016,04,25,03,48,3.10
2016,04,25,03,49,3.10
2016,04,25,03,50,3.00
2016,04,25,03,51,3.00
2016,04,25,03,52,3.10
2016,04,25,03,53,3.10
2016,04,25,03,54,3.10
2016,04,25,03,55,3.10
2016,04,25,03,56,3.10
2016,04,25,03,57,3.10
2016,04,25,03,58,3.10
2016,04,25,03,59,3.10
2016,04,25,04,00,3.10
2016,04,25,04,01,3.10
2016,04,25,04,02,3.10
2016,04,25,04,03,3.10
2016,04,25,04,04,3.10
2016,04,25,04,05,3.10
2016,04,25,04,06,3.10
2016,04,25,04,07,3.10
2016,04,25,04,09,3.10
2016,04,25,04,10,3.10
2016,04,25,04,11,3.10
2016,04,25,04,12,3.10
2016,04,25,04,13,3.10
2016,04,25,04,14,3.10
2016,04,25,04,15,3.10
2016,04,25,04,16,3.10
2016,04,25,04,17,3.10
2016,04,25,04,18,3.10
2016,04,25,04,19,3.10
2016,04,25,04,20,3.10
2016,04,25,04,21,3.20
2016,04,25,04,22,3.20
2016,04,25,04,23,3.20
2016,04,25,04,24,3.20
2016,04,25,04,25,3.30
2016,04,25,04,26,3.30
2016,04,25,04,27,3.30
2016,04,25,04,28,3.20
2016,04,25,04,29,3.20
2016,04,25,04,30,3.20
2016,04,25,04,31,3.20
2016,04,25,04,32,3.20
2016,04,25,04,33,3.20
2016,04,25,04,34,3.20
2016,04,25,04,35,3.20
2016,04,25,04,36,3.10
2016,04,25,04,37,3.10
2016,04,25,04,38,3.10
2016,04,25,04,39,3.10
2016,04,25,04,40,3.10
2016,04,25,04,41,3.00
2016,04,25,04,42,3.00
2016,04,25,04,43,3.00
2016,04,25,04,44,2.90
2016,04,25,04,45,2.90
2016,04,25,04,46,2.90
2016,04,25,04,47,2.90
2016,04,25,04,48,2.90
2016,04,25,04,49,2.80
2016,04,25,04,50,2.80
2016,04,25,04,51,2.80
2016,04,25,04,52,2.80
2016,04,25,04,53,2.70
2016,04,25,04,54,2.70
2016,04,25,04,55,2.70
2016,04,25,04,56,2.70
2016,04,25,04,57,2.70
2016,04,25,04,58,2.60
2016,04,25,04,59,2.60
2016,04,25,05,00,2.60
2016,04,25,05,01,2.60
2016,04,25,05,02,2.60
2016,04,25,05,03,2.70
2016,04,25,05,04,2.70
2016,04,25,05,05,2.70
2016,04,25,05,06,2.70
2016,04,25,05,07,2.70
2016,04,25,05,08,2.70
2016,04,25,05,09,2.70
2016,04,25,05,10,2.70
2016,04,25,05,11,2.70
2016,04,25,05,12,2.60
2016,04,25,05,13,2.60
2016,04,25,05,14,2.60
2016,04,25,05,15,2.60
2016,04,25,05,16,2.60
2016,04,25,05,17,2.60
2016,04,25,05,18,2.70
2016,04,25,05,19,2.70
2016,04,25,05,20,2.70
2016,04,25,05,21,2.70
2016,04,25,05,22,2.70
2016,04,25,05,23,2.70
2016,04,25,05,24,2.70
2016,04,25,05,25,2.70
2016,04,25,05,26,2.60
2016,04,25,05,27,2.60
2016,04,25,05,28,2.60
2016,04,25,05,29,2.60
2016,04,25,05,30,2.50
2016,04,25,05,31,2.50
2016,04,25,05,32,2.50
2016,04,25,05,33,2.50
2016,04,25,05,34,2.50
2016,04,25,05,35,2.50
2016,04,25,05,36,2.50
2016,04,25,05,37,2.40
2016,04,25,05,38,2.40
2016,04,25,05,39,2.40
2016,04,25,05,40,2.40
2016,04,25,05,41,2.40
2016,04,25,05,42,2.30
2016,04,25,05,43,2.30
2016,04,25,05,44,2.30
2016,04,25,05,45,2.30
2016,04,25,05,46,2.30
2016,04,25,05,47,2.30
2016,04,25,05,48,2.30
2016,04,25,05,49,2.30
2016,04,25,05,50,2.30
2016,04,25,05,51,2.30
2016,04,25,05,52,2.30
2016,04,25,05,53,2.30
2016,04,25,05,54,2.30
2016,04,25,05,55,2.20
2016,04,25,05,56,2.20
2016,04,25,05,57,2.20
2016,04,25,05,58,2.20
2016,04,25,05,59,2.20
2016,04,25,06,00,2.20
2016,04,25,06,01,2.20
2016,04,25,06,02,2.30
2016,04,25,06,03,2.30
2016,04,25,06,04,2.30
2016,04,25,06,05,2.30
2016,04,25,06,06,2.30
2016,04,25,06,07,2.30
2016,04,25,06,08,2.30
2016,04,25,06,09,2.30
2016,04,25,06,10,2.20
2016,04,25,06,11,2.20
2016,04,25,06,12,2.20
2016,04,25,06,13,2.10
2016,04,25,06,14,2.10
2016,04,25,06,15,2.10
2016,04,25,06,16,2.10
2016,04,25,06,17,2.10
2016,04,25,06,18,2.10
2016,04,25,06,19,2.10
2016,04,25,06,20,2.10
2016,04,25,06,21,2.10
2016,04,25,06,22,2.10
2016,04,25,06,23,2.10
2016,04,25,06,24,2.10
2016,04,25,06,25,2.10
2016,04,25,06,26,2.10
2016,04,25,06,27,2.10
2016,04,25,06,28,2.20
2016,04,25,06,29,2.20
2016,04,25,06,30,2.20
2016,04,25,06,31,2.20
2016,04,25,06,32,2.20
2016,04,25,06,33,2.20
2016,04,25,06,34,2.20
2016,04,25,06,35,2.20
2016,04,25,06,36,2.20
2016,04,25,06,37,2.20
2016,04,25,06,38,2.20
2016,04,25,06,39,2.20
2016,04,25,06,40,2.10
2016,04,25,06,41,2.20
2016,04,25,06,42,2.20
2016,04,25,06,43,2.20
2016,04,25,06,44,2.20
2016,04,25,06,45,2.20
2016,04,25,06,46,2.20
2016,04,25,06,47,2.20
2016,04,25,06,48,2.30
2016,04,25,06,49,2.30
2016,04,25,06,50,2.30
2016,04,25,06,51,2.30
2016,04,25,06,52,2.40
2016,04,25,06,53,2.40
2016,04,25,06,54,2.50
2016,04,25,06,55,2.50
2016,04,25,06,56,2.60
2016,04,25,06,57,2.60
2016,04,25,06,58,2.60
2016,04,25,06,59,2.70
2016,04,25,07,00,2.70
2016,04,25,07,01,2.70
2016,04,25,07,02,2.80
2016,04,25,07,03,2.80
2016,04,25,07,04,2.80
2016,04,25,07,05,2.90
2016,04,25,07,06,2.90
2016,04,25,07,07,2.90
2016,04,25,07,08,2.90
2016,04,25,07,09,3.00
2016,04,25,07,10,3.00
2016,04,25,07,11,3.10
2016,04,25,07,12,3.10
2016,04,25,07,13,3.10
2016,04,25,07,14,3.10
2016,04,25,07,15,3.20
2016,04,25,07,16,3.20
2016,04,25,07,17,3.20
2016,04,25,07,18,3.20
2016,04,25,07,19,3.20
2016,04,25,07,20,3.20
2016,04,25,07,21,3.20
2016,04,25,07,22,3.30
2016,04,25,07,23,3.30
2016,04,25,07,24,3.30
2016,04,25,07,25,3.30
2016,04,25,07,26,3.30
2016,04,25,07,27,3.40
2016,04,25,07,28,3.40
2016,04,25,07,29,3.40
2016,04,25,07,30,3.40
2016,04,25,07,31,3.40
2016,04,25,07,32,3.50
2016,04,25,07,33,3.50
2016,04,25,07,34,3.50
2016,04,25,07,35,3.50
2016,04,25,07,36,3.50
2016,04,25,07,37,3.60
2016,04,25,07,38,3.60
2016,04,25,07,39,3.60
2016,04,25,07,40,3.60
2016,04,25,07,41,3.70
2016,04,25,07,42,3.70
2016,04,25,07,43,3.80
2016,04,25,07,44,3.80
2016,04,25,07,45,3.80
2016,04,25,07,46,3.90
2016,04,25,07,47,3.90
2016,04,25,07,48,4.00
2016,04,25,07,49,4.00
2016,04,25,07,50,4.00
2016,04,25,07,51,4.00
2016,04,25,07,52,4.00
2016,04,25,07,53,4.10
2016,04,25,07,54,4.10
2016,04,25,07,55,4.10
2016,04,25,07,56,4.20
2016,04,25,07,57,4.20
2016,04,25,07,58,4.30
2016,04,25,07,59,4.30
2016,04,25,08,00,4.40
2016,04,25,08,01,4.40
2016,04,25,08,02,4.50
2016,04,25,08,03,4.50
2016,04,25,08,04,4.60
2016,04,25,08,05,4.70
2016,04,25,08,06,4.70
2016,04,25,08,07,4.70
2016,04,25,08,08,4.80
2016,04,25,08,09,4.80
2016,04,25,08,10,4.80
2016,04,25,08,11,4.90
2016,04,25,08,12,4.90
2016,04,25,08,13,5.00
2016,04,25,08,14,5.00
2016,04,25,08,15,5.10
2016,04,25,08,16,5.20
2016,04,25,08,17,5.20
2016,04,25,08,18,5.30
2016,04,25,08,19,5.40
2016,04,25,08,20,5.40
2016,04,25,08,21,5.50
2016,04,25,08,22,5.50
2016,04,25,08,23,5.60
2016,04,25,08,24,5.70
2016,04,25,08,25,5.70
2016,04,25,08,26,5.80
2016,04,25,08,27,5.90
2016,04,25,08,28,6.00
2016,04,25,08,29,6.10
2016,04,25,08,30,6.20
2016,04,25,08,31,6.20
2016,04,25,08,32,6.30
2016,04,25,08,33,6.30
2016,04,25,08,34,6.30
2016,04,25,08,35,6.30
2016,04,25,08,36,6.40
2016,04,25,08,37,6.40
2016,04,25,08,38,6.40
2016,04,25,08,39,6.50
2016,04,25,08,40,6.50
2016,04,25,08,41,6.60
2016,04,25,08,42,6.60
2016,04,25,08,43,6.70
2016,04,25,08,44,6.80
2016,04,25,08,45,6.80
2016,04,25,08,46,6.90
2016,04,25,08,47,6.90
2016,04,25,08,48,7.00
2016,04,25,08,49,7.10
2016,04,25,08,50,7.20
2016,04,25,08,51,7.20
2016,04,25,08,52,7.30
2016,04,25,08,53,7.40
2016,04,25,08,54,7.40
2016,04,25,08,55,7.50
2016,04,25,08,56,7.60
2016,04,25,08,57,7.70
2016,04,25,08,58,7.80
2016,04,25,08,59,7.90
2016,04,25,09,00,8.00
2016,04,25,09,01,8.10
2016,04,25,09,02,8.20
2016,04,25,09,03,8.30
2016,04,25,09,04,8.30
2016,04,25,09,05,8.40
2016,04,25,09,06,8.40
2016,04,25,09,07,8.40
2016,04,25,09,08,8.50
2016,04,25,09,09,8.50
2016,04,25,09,10,8.60
2016,04,25,09,11,8.70
2016,04,25,09,12,8.70
2016,04,25,09,13,8.80
2016,04,25,09,14,8.90
2016,04,25,09,15,8.90
2016,04,25,09,16,9.00
2016,04,25,09,17,9.10
2016,04,25,09,18,9.20
2016,04,25,09,19,9.20
2016,04,25,09,20,9.30
2016,04,25,09,21,9.30
2016,04,25,09,22,9.30
2016,04,25,09,23,9.30
2016,04,25,09,24,9.30
2016,04,25,09,25,9.40
2016,04,25,09,26,9.40
2016,04,25,09,27,9.50
2016,04,25,09,28,9.60
2016,04,25,09,29,9.60
2016,04,25,09,30,9.70
2016,04,25,09,31,9.70
2016,04,25,09,32,9.80
2016,04,25,09,33,9.80
2016,04,25,09,34,9.90
2016,04,25,09,35,9.90
2016,04,25,09,36,9.90
2016,04,25,09,37,9.90
2016,04,25,09,38,9.90
2016,04,25,09,39,9.90
2016,04,25,09,40,9.80
2016,04,25,09,41,9.80
2016,04,25,09,42,9.90
2016,04,25,09,43,9.90
2016,04,25,09,44,10.00
2016,04,25,09,45,10.10
2016,04,25,09,46,10.10
2016,04,25,09,47,10.10
2016,04,25,09,48,10.10
2016,04,25,09,49,10.10
2016,04,25,09,50,10.10
2016,04,25,09,51,10.10
2016,04,25,09,52,10.10
2016,04,25,09,53,10.10
2016,04,25,09,54,10.20
2016,04,25,09,55,10.20
2016,04,25,09,56,10.30
2016,04,25,09,57,10.30
2016,04,25,09,58,10.30
2016,04,25,09,59,10.30
2016,04,25,10,00,10.30
2016,04,25,10,01,10.30
2016,04,25,10,02,10.40
2016,04,25,10,03,10.40
2016,04,25,10,04,10.50
2016,04,25,10,05,10.50
2016,04,25,10,06,10.60
2016,04,25,10,07,10.60
2016,04,25,10,08,10.60
2016,04,25,10,09,10.60
2016,04,25,10,10,10.50
2016,04,25,10,11,10.50
2016,04,25,10,12,10.40
2016,04,25,10,13,10.40
2016,04,25,10,14,10.40
2016,04,25,10,15,10.40
2016,04,25,10,16,10.50
2016,04,25,10,17,10.60
2016,04,25,10,18,10.70
2016,04,25,10,19,10.80
2016,04,25,10,20,10.80
2016,04,25,10,21,10.90
2016,04,25,10,22,10.90
2016,04,25,10,23,11.00
2016,04,25,10,24,11.10
2016,04,25,10,25,11.10
2016,04,25,10,26,11.10
2016,04,25,10,27,11.10
2016,04,25,10,28,11.00
2016,04,25,10,29,11.00
2016,04,25,10,30,11.10
2016,04,25,10,31,11.10
2016,04,25,10,32,11.20
2016,04,25,10,33,11.30
2016,04,25,10,34,11.30
2016,04,25,10,35,11.30
2016,04,25,10,36,11.40
2016,04,25,10,37,11.30
2016,04,25,10,38,11.30
2016,04,25,10,39,11.30
2016,04,25,10,40,11.20
2016,04,25,10,41,11.20
2016,04,25,10,42,11.20
2016,04,25,10,43,11.20
2016,04,25,10,44,11.20
2016,04,25,10,45,11.30
2016,04,25,10,46,11.30
2016,04,25,10,47,11.30
2016,04,25,10,48,11.30
2016,04,25,10,49,11.30
2016,04,25,10,50,11.40
2016,04,25,10,51,11.40
2016,04,25,10,52,11.40
2016,04,25,10,53,11.50
2016,04,25,10,54,11.50
2016,04,25,10,55,11.50
2016,04,25,10,56,11.50
2016,04,25,10,57,11.50
2016,04,25,10,58,11.50
2016,04,25,10,59,11.50
2016,04,25,11,00,11.60
2016,04,25,11,01,11.60
2016,04,25,11,02,11.60
2016,04,25,11,03,11.60
2016,04,25,11,04,11.60
2016,04,25,11,05,11.70
2016,04,25,11,06,11.70
2016,04,25,11,07,11.70
2016,04,25,11,08,11.80
2016,04,25,11,09,11.90
2016,04,25,11,10,11.90
2016,04,25,11,11,11.90
2016,04,25,11,12,11.90
2016,04,25,11,13,11.90
2016,04,25,11,14,11.90
2016,04,25,11,15,11.90
2016,04,25,11,16,12.00
2016,04,25,11,17,12.00
2016,04,25,11,18,12.10
2016,04,25,11,19,12.10
2016,04,25,11,20,12.10
2016,04,25,11,21,12.10
2016,04,25,11,22,12.10
2016,04,25,11,23,12.00
2016,04,25,11,24,12.00
2016,04,25,11,25,12.00
2016,04,25,11,26,12.00
2016,04,25,11,27,12.00
2016,04,25,11,28,11.90
2016,04,25,11,29,11.90
2016,04,25,11,30,11.90
2016,04,25,11,31,11.90
2016,04,25,11,32,11.90
2016,04,25,11,33,12.00
2016,04,25,11,34,12.00
2016,04,25,11,35,12.10
2016,04,25,11,36,12.20
2016,04,25,11,37,12.20
2016,04,25,11,38,12.20
2016,04,25,11,39,12.20
2016,04,25,11,40,12.20
2016,04,25,11,41,12.20
2016,04,25,11,42,12.20
2016,04,25,11,43,12.20
2016,04,25,11,44,12.20
2016,04,25,11,45,12.20
2016,04,25,11,46,12.20
2016,04,25,11,47,12.20
2016,04,25,11,48,12.10
2016,04,25,11,49,12.10
2016,04,25,11,50,12.10
2016,04,25,11,51,12.10
2016,04,25,11,52,12.20
2016,04,25,11,53,12.20
2016,04,25,11,54,12.30
2016,04,25,11,55,12.30
2016,04,25,11,56,12.20
2016,04,25,11,57,12.20
2016,04,25,11,58,12.30
2016,04,25,11,59,12.40
2016,04,25,12,00,12.40
2016,04,25,12,01,12.40
2016,04,25,12,02,12.40
2016,04,25,12,03,12.40
2016,04,25,12,04,12.30
2016,04,25,12,05,12.30
2016,04,25,12,06,12.30
2016,04,25,12,07,12.30
2016,04,25,12,08,12.30
2016,04,25,12,09,12.30
2016,04,25,12,10,12.30
2016,04,25,12,11,12.30
2016,04,25,12,12,12.20
2016,04,25,12,13,12.20
2016,04,25,12,14,12.20
2016,04,25,12,15,12.30
2016,04,25,12,16,12.30
2016,04,25,12,17,12.30
2016,04,25,12,18,12.40
2016,04,25,12,19,12.40
2016,04,25,12,20,12.40
2016,04,25,12,21,12.40
2016,04,25,12,22,12.50
2016,04,25,12,23,12.50
2016,04,25,12,24,12.60
2016,04,25,12,25,12.60
2016,04,25,12,26,12.70
2016,04,25,12,27,12.70
2016,04,25,12,28,12.70
2016,04,25,12,29,12.70
2016,04,25,12,30,12.80
2016,04,25,12,31,12.80
2016,04,25,12,32,12.80
2016,04,25,12,33,12.80
2016,04,25,12,34,12.80
2016,04,25,12,35,12.70
2016,04,25,12,36,12.70
2016,04,25,12,37,12.70
2016,04,25,12,38,12.70
2016,04,25,12,39,12.60
2016,04,25,12,40,12.60
2016,04,25,12,41,12.60
2016,04,25,12,42,12.60
2016,04,25,12,43,12.50
2016,04,25,12,44,12.60
2016,04,25,12,45,12.50
2016,04,25,12,46,12.50
2016,04,25,12,47,12.60
2016,04,25,12,48,12.60
2016,04,25,12,49,12.70
2016,04,25,12,50,12.80
2016,04,25,12,51,12.80
2016,04,25,12,52,12.90
2016,04,25,12,53,12.90
2016,04,25,12,54,12.90
2016,04,25,12,55,13.00
2016,04,25,12,56,13.00
2016,04,25,12,57,13.10
2016,04,25,12,58,13.10
2016,04,25,12,59,13.10
2016,04,25,13,00,13.20
2016,04,25,13,01,13.20
2016,04,25,13,02,13.20
2016,04,25,13,03,13.30
2016,04,25,13,04,13.20
2016,04,25,13,05,13.20
2016,04,25,13,06,13.20
2016,04,25,13,07,13.30
2016,04,25,13,08,13.30
2016,04,25,13,09,13.30
2016,04,25,13,10,13.30
2016,04,25,13,11,13.20
2016,04,25,13,12,13.10
2016,04,25,13,13,13.00
2016,04,25,13,14,13.00
2016,04,25,13,15,12.90
2016,04,25,13,16,13.00
2016,04,25,13,17,13.10
2016,04,25,13,18,13.20
2016,04,25,13,19,13.30
2016,04,25,13,20,13.30
2016,04,25,13,21,13.40
2016,04,25,13,22,13.40
2016,04,25,13,23,13.40
2016,04,25,13,24,13.50
2016,04,25,13,25,13.40
2016,04,25,13,26,13.40
2016,04,25,13,27,13.40
2016,04,25,13,28,13.40
2016,04,25,13,29,13.40
2016,04,25,13,30,13.40
2016,04,25,13,31,13.40
2016,04,25,13,32,13.40
2016,04,25,13,33,13.40
2016,04,25,13,34,13.50
2016,04,25,13,35,13.50
2016,04,25,13,36,13.60
2016,04,25,13,37,13.60
2016,04,25,13,38,13.60
2016,04,25,13,39,13.60
2016,04,25,13,40,13.60
2016,04,25,13,41,13.60
2016,04,25,13,42,13.60
2016,04,25,13,43,13.60
2016,04,25,13,44,13.70
2016,04,25,13,45,13.70
2016,04,25,13,46,13.70
2016,04,25,13,47,13.70
2016,04,25,13,48,13.70
2016,04,25,13,49,13.70
2016,04,25,13,50,13.70
2016,04,25,13,51,13.70
2016,04,25,13,52,13.70
2016,04,25,13,53,13.70
2016,04,25,13,54,13.70
2016,04,25,13,55,13.80
2016,04,25,13,56,13.80
2016,04,25,13,57,13.80
2016,04,25,13,58,13.70
2016,04,25,13,59,13.70
2016,04,25,14,00,13.70
2016,04,25,14,01,13.80
2016,04,25,14,02,13.80
2016,04,25,14,03,13.80
2016,04,25,14,04,13.90
2016,04,25,14,05,13.90
2016,04,25,14,06,13.90
2016,04,25,14,07,13.90
2016,04,25,14,08,13.90
2016,04,25,14,09,13.90
2016,04,25,14,10,14.00
2016,04,25,14,11,14.10
2016,04,25,14,12,14.10
2016,04,25,14,13,14.10
2016,04,25,14,14,14.10
2016,04,25,14,15,14.10
2016,04,25,14,16,14.10
2016,04,25,14,17,14.10
2016,04,25,14,18,14.10
2016,04,25,14,19,14.10
2016,04,25,14,20,14.20
2016,04,25,14,21,14.20
2016,04,25,14,22,14.20
2016,04,25,14,23,14.20
2016,04,25,14,24,14.20
2016,04,25,14,25,14.30
2016,04,25,14,26,14.30
2016,04,25,14,27,14.30
2016,04,25,14,28,14.40
2016,04,25,14,29,14.40
2016,04,25,14,30,14.40
2016,04,25,14,31,14.40
2016,04,25,14,32,14.40
2016,04,25,14,33,14.50
2016,04,25,14,34,14.60
2016,04,25,14,35,14.60
2016,04,25,14,36,14.60
2016,04,25,14,37,14.60
2016,04,25,14,38,14.60
2016,04,25,14,39,14.60
2016,04,25,14,40,14.60
2016,04,25,14,41,14.60
2016,04,25,14,42,14.60
2016,04,25,14,43,14.60
2016,04,25,14,44,14.60
2016,04,25,14,45,14.60
2016,04,25,14,46,14.60
2016,04,25,14,47,14.70
2016,04,25,14,48,14.70
2016,04,25,14,49,14.80
2016,04,25,14,50,14.80
2016,04,25,14,51,14.90
2016,04,25,14,52,15.00
2016,04,25,14,53,15.00
2016,04,25,14,54,15.10
2016,04,25,14,55,15.10
2016,04,25,14,56,15.20
2016,04,25,14,57,15.20
2016,04,25,14,58,15.20
2016,04,25,14,59,15.20
2016,04,25,15,00,15.20
2016,04,25,15,01,15.20
2016,04,25,15,02,15.10
2016,04,25,15,03,15.00
2016,04,25,15,04,14.90
2016,04,25,15,05,14.70
2016,04,25,15,06,14.70
2016,04,25,15,07,14.70
2016,04,25,15,08,14.80
2016,04,25,15,09,14.80
2016,04,25,15,10,14.80
2016,04,25,15,11,14.80
2016,04,25,15,12,14.80
2016,04,25,15,13,14.80
2016,04,25,15,14,14.70
2016,04,25,15,15,14.70
2016,04,25,15,16,14.60
2016,04,25,15,17,14.60
2016,04,25,15,18,14.60
2016,04,25,15,19,14.60
2016,04,25,15,20,14.50
2016,04,25,15,21,14.50
2016,04,25,15,22,14.60
2016,04,25,15,23,14.60
2016,04,25,15,24,14.60
2016,04,25,15,25,14.60
2016,04,25,15,26,14.60
2016,04,25,15,27,14.60
2016,04,25,15,28,14.60
2016,04,25,15,29,14.60
2016,04,25,15,30,14.60
2016,04,25,15,31,14.60
2016,04,25,15,32,14.70
2016,04,25,15,33,14.70
2016,04,25,15,34,14.70
2016,04,25,15,35,14.80
2016,04,25,15,36,14.80
2016,04,25,15,37,14.80
2016,04,25,15,38,14.80
2016,04,25,15,39,14.80
2016,04,25,15,40,14.80
2016,04,25,15,41,14.80
2016,04,25,15,42,14.80
2016,04,25,15,43,14.70
2016,04,25,15,44,14.60
2016,04,25,15,45,14.60
2016,04,25,15,46,14.50
2016,04,25,15,47,14.50
2016,04,25,15,48,14.50
2016,04,25,15,49,14.50
2016,04,25,15,50,14.50
2016,04,25,15,51,14.60
2016,04,25,15,52,14.60
2016,04,25,15,53,14.60
2016,04,25,15,54,14.70
2016,04,25,15,55,14.70
2016,04,25,15,56,14.60
2016,04,25,15,57,14.60
2016,04,25,15,58,14.60
2016,04,25,15,59,14.60
2016,04,25,16,00,14.60
2016,04,25,16,01,14.60
2016,04,25,16,02,14.60
2016,04,25,16,03,14.60
2016,04,25,16,04,14.60
2016,04,25,16,05,14.70
2016,04,25,16,06,14.70
2016,04,25,16,07,14.70
2016,04,25,16,08,14.70
2016,04,25,16,09,14.70
2016,04,25,16,10,14.70
2016,04,25,16,11,14.70
2016,04,25,16,12,14.60
2016,04,25,16,13,14.60
2016,04,25,16,14,14.60
2016,04,25,16,15,14.50
2016,04,25,16,16,14.40
2016,04,25,16,17,14.40
2016,04,25,16,18,14.30
2016,04,25,16,19,14.30
2016,04,25,16,20,14.20
2016,04,25,16,21,14.30
2016,04,25,16,22,14.30
2016,04,25,16,23,14.30
2016,04,25,16,24,14.30
2016,04,25,16,25,14.30
2016,04,25,16,26,14.30
2016,04,25,16,27,14.30
2016,04,25,16,28,14.30
2016,04,25,16,29,14.30
2016,04,25,16,30,14.40
2016,04,25,16,31,14.40
2016,04,25,16,32,14.50
2016,04,25,16,33,14.50
2016,04,25,16,34,14.60
2016,04,25,16,35,14.60
2016,04,25,16,36,14.60
2016,04,25,16,37,14.60
2016,04,25,16,38,14.60
2016,04,25,16,39,14.60
2016,04,25,16,40,14.50
2016,04,25,16,41,14.50
2016,04,25,16,42,14.50
2016,04,25,16,43,14.50
2016,04,25,16,44,14.60
2016,04,25,16,45,14.60
2016,04,25,16,46,14.60
2016,04,25,16,47,14.70
2016,04,25,16,48,14.70
2016,04,25,16,49,14.80
2016,04,25,16,50,14.80
2016,04,25,16,51,14.90
2016,04,25,16,52,14.90
2016,04,25,16,53,14.90
2016,04,25,16,54,14.90
2016,04,25,16,55,14.90
2016,04,25,16,56,14.90
2016,04,25,16,57,14.90
2016,04,25,16,58,14.90
2016,04,25,16,59,14.90
2016,04,25,17,00,14.90
2016,04,25,17,01,14.90
2016,04,25,17,02,14.90
2016,04,25,17,03,14.90
2016,04,25,17,04,14.90
2016,04,25,17,05,14.90
2016,04,25,17,06,14.90
2016,04,25,17,07,14.90
2016,04,25,17,08,14.90
2016,04,25,17,09,14.90
2016,04,25,17,10,14.90
2016,04,25,17,11,14.90
2016,04,25,17,12,14.90
2016,04,25,17,13,14.90
2016,04,25,17,14,15.00
2016,04,25,17,15,15.00
2016,04,25,17,16,14.90
2016,04,25,17,17,14.90
2016,04,25,17,18,14.90
2016,04,25,17,19,14.90
2016,04,25,17,20,14.80
2016,04,25,17,21,14.80
2016,04,25,17,22,14.80
2016,04,25,17,23,14.80
2016,04,25,17,24,14.70
2016,04,25,17,25,14.70
2016,04,25,17,26,14.70
2016,04,25,17,27,14.70
2016,04,25,17,28,14.70
2016,04,25,17,29,14.70
2016,04,25,17,30,14.70
2016,04,25,17,31,14.80
2016,04,25,17,32,14.80
2016,04,25,17,33,14.80
2016,04,25,17,34,14.80
2016,04,25,17,35,14.80
2016,04,25,17,36,14.80
2016,04,25,17,37,14.80
2016,04,25,17,38,14.80
2016,04,25,17,39,14.90
2016,04,25,17,40,14.90
2016,04,25,17,41,14.90
2016,04,25,17,42,14.90
2016,04,25,17,43,14.90
2016,04,25,17,44,14.90
2016,04,25,17,45,14.90